Orbital Elements at Epoch 2459000.5 (2020-May-31.0) TDB
Reference: JPL 16 (heliocentric ecliptic J2000)
Element | Value | Uncertainty (1-sigma) | Units |
e | .203352272572866 | 3.2494e-08 | |
a | 2.278514101031897 | 8.0509e-09 | au |
q | 1.81517308049774 | 7.5299e-08 | au |
i | 4.193913895248688 | 4.6153e-06 | deg |
node | 45.09820570913188 | 5.2992e-05 | deg |
peri | 21.67177355537206 | 5.5174e-05 | deg |
M | 293.7751416387405 | 1.3366e-05 | deg |
tp | 2459231.597126375244 (2021-Jan-17.09712638) | 4.645e-05 | TDB |
period | 1256.249806398309 3.44 | 6.6583e-06 1.823e-08 | d yr |
n | .2865672083422058 | 1.5188e-09 | deg/d |
Q | 2.741855121566055 | 9.6881e-09 | au |
|
| | Orbit Determination Parameters
Additional Information
|